ARIANE 5 R/B, 27510

Orbit data source: Space-Track

ARIANE 5 R/B, 27510 is space debris in HEO originally from a launch on Wed, 28 Aug 2002 UTC launched from the French Guiana (FRGUI). Debris objects in space refer to the collection of defunct objects orbiting the Earth. Examples of debris include non-operational satellites, rocket bodies, and fragments generated from explosions, collisions, or faulty payload assembly.

Loading next visibility...
Identifier
27510, 2002-040C
Orbit
HEO
Last TLE update
8 hours ago
Origin
Manufacturer
Astrium
Mission
Spacecraft
Bus & Motor
EPS, AESTUS
Mass
2,490 kg wet, 1,190 kg dry
Launch date (UTC)
2002-08-28 (23 years ago)
Launch vehicle
Unknown
Launch site
French Guiana (FRGUI)
Object type
Payload
Rocket body
Debris
Shape & HBR
Cone + Cyl, 5.46 m
Radar Cross Section
25.858 m², Large (>1 m²)

Expand to show TLE details & history

TLE from 8 hours ago
0 ARIANE 5 R/B
1 27510U 02040C   25126.91375545 -.00000092  00000-0  82335-3 0  9992
2 27510   4.8150 179.7815 7149769  10.7982  92.4234  2.27281434188399
Epoch: 2025-05-06T21:55Z
Definitive object data (Epoch: 2025-05-06T21:55:48.47Z)
Latitude
1.07726°
Longitude
153.09158°
Altitude
28,233.012 km
Speed
2.592 km/s
True Right ascension
23h 08m 11s
True Declination
1° 04' 33"
Sunlit
Object was in daylight at TLE epoch
Visualization TLE readout
Latitude
4.51072°
Longitude
97.23115°
Altitude
7,305.565 km
Speed
6.476 km/s
Apparent Right ascension
20h 48m 22s
Apparent Declination
-12° 42' 36"
Sunlit
Object is in daylight
Visualization observer readout
Local Sidereal Time
14:22:38
Azimuth
95.808° ESE
Elevation
-13.005°
Doppler factor
1
Orbital elements
Apogee altitude
35,537.605 km
Perigee altitude
588.111 km
Semi-major axis
24,440.995 km
Eccentricity
0.7149769
Inclination
4.815°
RAAN
179.7815°
Arg. of periapsis
10.7982°
True anomaly
156.37974°
Mean anomaly
92.4234°
Eccentric anomaly
125.69332°
Mean motion
0.56802 °/min
BSTAR
0.00082335
Orbital period
633.78 mins
Loading maneuver chart data...
Loading SW <> Apogee altitude chart data...
Loading historical data...
Loading historical data...
Loading historical data...
Loading historical data...
Loading historical data...
Loading historical data...
Loading historical data...

ARIANE 5 R/B Visibility forecast

Observer location: undefined°, undefined°

Span
Click to sort rows by Start time (UTC) header in descending order
Start Az.
Max El. time (UTC)
Max El. Az.
Max El.
End time (UTC)
End Az.
136 mins2025-05-07 17:53:42.328Z251.465° W2025-05-07 18:48:42.328Z249.531° W13.363°2025-05-07 20:09:42.328Z253.051° W
|